Temperature
15 15 15 15 15 15 15 16 16 16 16 16 16 16 16 16 16 16 16 16 16 16 16 17 17 17 17 17 17 17 17 17 17 17 17 17 18 18 18 18 18 18 18
15 15 15 15 15 15 15 16 16 16 16 16 16 16 16 16 16 16 16 16 16 16 16 16 16 17 17 17 17 17 17 17 17 17 17 17 17 17 18 18 18 18 18
15 15 15 15 15 15 15 16 16 16 16 16 16 16 16 16 16 16 16 16 16 16 16 16 16 16 17 17 17 17 17 17 17 17 17 17 17 17 17 18 18 18 18
15 15 15 15 15 15 16 16 16 16 16 16 16 16 16 16 16 16 16 16 16 16 16 16 16 16 16 16 16 16 17 17 17 17 17 17 17 17 17 17 18 18 18
15 15 15 15 15 15 16 16 16 16 16 16 16 16 16 16 15 15 16 16 16 16 16 16 16 16 16 16 16 16 16 16 17 17 17 17 17 17 17 17 17 17 18
15 15 15 15 15 15 15 16 16 16 16 16 16 15 15 15 15 15 15 15 15 15 15 15 16 16 16 16 16 16 16 16 16 16 17 17 17 17 17 17 17 17 17
15 15 15 15 15 15 15 15 16 16 16 16 16 15 15 15 15 15 15 15 15 15 15 15 15 15 15 16 16 16 16 16 16 16 16 16 17 17 17 17 17 17 17
15 15 15 15 15 15 15 15 15 16 16 16 16 16 15 15 15 15 15 15 15 15 15 15 15 15 15 15 16 16 16 16 16 16 16 16 16 17 17 17 17 17 17
15 15 15 15 15 15 15 15 15 15 16 15 16 16 15 15 15 15 15 15 15 15 15 15 15 15 15 15 15 15 16 16 16 16 16 16 16 16 17 17 17 17 17
15 15 15 15 15 15 15 15 15 15 15 15 15 15 15 15 15 14 14 14 15 15 15 15 15 15 15 15 15 15 15 15 16 16 16 16 16 16 16 16 17 17 17
15 15 15 15 15 15 15 15 15 15 15 15 15 15 15 15 15 15 14 14 14 14 14 14 14 14 15 15 15 15 15 15 15 16 16 16 16 16 16 16 16 16 16
15 15 15 15 15 15 15 15 15 15 15 15 15 15 15 15 15 15 14 14 14 14 14 14 14 14 14 14 14 15 15 15 15 15 15 15 16 16 16 16 16 16 16
16 15 15 15 15 15 15 15 15 15 15 15 15 15 15 15 15 15 15 14 14 14 14 14 14 14 14 14 14 14 15 15 15 15 15 15 15 15 15 16 16 16 16
16 15 15 15 15 15 15 15 15 15 15 15 15 15 15 14 14 14 14 14 14 14 14 13 14 14 14 14 14 14 14 14 14 15 15 15 15 15 15 15 15 16 16
16 16 15 15 15 15 15 15 15 15 15 14 14 14 14 14 14 14 14 14 14 13 13 13 13 13 13 13 13 13 14 14 14 14 14 14 14 15 15 15 15 15 15
16 16 15 15 15 15 15 15 15 15 15 14 14 14 14 14 14 14 14 14 14 14 13 13 13 13 13 13 13 13 13 13 14 14 14 14 14 14 14 14 15 15 15
16 16 16 15 15 15 15 15 15 14 14 14 14 14 14 14 14 14 14 14 14 13 13 13 13 13 13 13 13 13 13 13 13 13 14 14 14 14 14 14 14 14 14
16 16 16 15 15 15 15 15 15 14 14 14 14 14 14 14 14 14 14 13 13 13 13 13 13 13 13 13 13 13 13 13 13 13 13 13 13 13 13 14 14 14 14
16 16 16 15 15 15 15 15 14 14 14 14 14 14 14 14 14 14 13 13 13 13 13 13 12 12 12 12 13 13 13 13 13 13 13 13 13 13 13 13 13 13 13
16 16 16 15 15 15 15 15 14 14 14 14 14 14 13 13 13 13 13 13 13 13 12 12 12 12 12 12 12 12 12 12 12 12 12 12 12 12 12 13 13 13 13
16 16 15 15 15 15 15 14 14 14 14 14 14 13 13 13 13 13 13 13 13 12 12 12 12 12 12 12 12 12 12 12 12 12 12 12 12 12 12 12 12 12 12
16 16 15 15 15 15 14 14 14 14 14 14 13 13 13 13 13 13 13 12 12 12 12 12 12 12 11 11 11 11 11 11 11 11 11 11 11 11 11 11 11 11 11
16 15 15 15 15 15 14 14 14 14 13 13 13 13 13 13 13 12 12 12 12 12 12 11 11 11 11 11 11 10 10 10 10 10 10 11 11 11 11 11 11 11 11
16 15 15 15 15 14 14 14 14 13 13 13 13 13 13 13 12 12 12 12 12 12 11 11 11 11 10 10 10 10 10 10 10 10 9 10 10 10 10 10 10 10 10
16 15 15 15 14 14 14 14 13 13 13 13 13 13 12 12 12 12 12 12 12 11 11 11 11 10 10 10 10 10 10 9 9 9 9 9 9 9 9 10 10 10 9
15 15 15 14 14 14 14 13 13 13 13 13 12 12 12 12 12 12 11 11 11 11 11 11 11 10 10 10 10 9 9 9 8 8 8 8 8 8 8 8 9 9 9
Wind_Speed
2 3 3 4 5 5 4 4 4 5 4 4 5 5 5 6 6 6 5 6 6 6 6 6 5 5 4 4 4 5 5 5 5 5 5 4 4 4 5 5 5 6 6
4 4 4 4 5 6 5 4 4 4 3 4 4 5 6 6 6 6 6 6 6 7 7 6 6 6 5 5 5 6 5 5 5 5 5 4 4 4 5 6 6 7 7
7 6 4 4 5 7 7 6 6 5 4 5 5 5 5 5 6 6 6 6 6 7 7 7 7 7 7 7 6 6 6 5 5 6 5 4 4 5 6 6 7 7 7
10 7 4 4 6 8 6 4 4 5 5 5 5 5 4 5 5 6 6 6 6 6 7 8 9 9 9 9 8 8 8 7 6 5 5 5 5 6 7 7 7 8 8
11 8 5 5 8 6 4 4 5 4 4 4 5 5 5 5 4 5 5 6 6 6 7 8 10 11 10 10 10 10 10 9 7 6 6 7 7 8 8 8 7 8 8
10 9 6 6 7 5 5 5 5 5 4 3 5 6 5 5 4 5 4 5 6 7 7 8 9 10 13 13 11 11 11 11 9 8 7 8 8 8 8 8 7 7 7
10 9 5 5 5 5 5 5 4 6 5 3 5 5 5 6 7 6 4 4 5 6 7 8 8 9 10 12 13 12 12 12 11 10 10 9 8 7 8 7 6 6 6
9 8 6 4 4 5 6 6 5 4 4 4 3 4 4 5 5 6 5 5 5 6 6 7 8 9 9 10 12 13 13 12 11 11 10 9 8 7 7 7 6 6 6
8 8 7 5 4 5 5 5 4 5 4 5 4 4 4 1 2 4 5 6 6 5 5 6 8 8 9 10 11 13 14 13 12 11 10 9 8 7 6 6 5 5 5
7 8 7 7 5 4 5 5 5 4 4 3 3 4 3 3 3 2 4 5 6 6 6 6 7 8 9 9 10 12 13 13 12 12 11 10 9 7 6 5 5 5 5
6 7 7 7 5 4 5 6 6 6 4 4 3 2 4 4 3 3 2 4 4 4 5 5 6 7 8 9 9 10 12 12 12 12 11 11 10 9 8 6 5 5 4
3 5 6 6 5 4 4 5 5 7 5 6 5 4 3 3 2 3 2 1 2 3 4 4 5 7 8 8 9 11 11 11 11 10 11 10 11 10 8 7 6 5 3
2 2 3 4 4 5 5 5 6 6 6 6 5 4 4 3 2 3 3 2 2 3 3 4 4 7 7 8 9 10 10 11 10 10 9 9 9 10 9 8 7 6 4
2 2 4 4 5 6 7 6 5 5 5 6 7 5 5 4 3 3 3 3 3 4 4 4 3 6 8 7 9 9 9 10 10 10 9 8 8 9 9 9 8 7 6
3 4 4 5 5 6 6 6 5 5 5 6 6 6 5 4 4 3 3 3 4 2 2 3 3 4 7 7 9 9 8 9 10 10 10 9 8 8 8 9 9 8 8
4 5 4 5 5 6 6 6 5 5 7 5 5 7 6 4 5 5 4 3 3 3 1 2 2 3 5 6 8 9 9 10 10 10 10 10 10 10 9 8 8 8 7
5 5 5 5 5 5 5 6 6 6 7 6 5 6 6 5 5 5 4 4 4 3 2 2 2 3 4 5 7 9 9 9 9 11 11 11 11 11 10 10 10 8 7
5 5 5 5 5 4 4 5 6 6 6 6 5 6 5 5 6 5 4 5 4 3 2 2 3 4 4 4 5 5 8 9 9 10 12 12 12 11 11 10 10 10 9
5 5 5 6 5 4 4 4 5 5 5 5 4 5 4 5 5 4 5 4 3 4 3 2 2 3 3 4 5 5 6 6 9 10 12 12 12 12 12 12 12 11 11
6 6 5 5 5 4 4 4 5 5 5 4 4 4 4 4 4 3 4 4 3 4 4 3 2 3 3 4 4 4 5 5 5 8 10 10 11 12 12 13 13 13 12
6 6 6 5 4 4 4 5 6 6 5 5 4 4 4 5 5 4 4 3 3 3 3 3 2 3 3 4 4 3 4 5 4 3 4 6 8 8 10 12 12 13 13
6 6 6 6 5 3 6 8 7 6 5 5 4 3 3 5 6 8 8 6 5 3 2 2 1 2 3 3 3 3 3 4 4 4 4 5 4 4 7 10 12 12 13
6 6 6 6 5 4 7 9 9 6 5 4 4 3 3 4 5 4 6 7 7 6 3 2 1 1 2 3 2 2 2 2 3 4 3 4 4 4 7 11 12 12 14
6 6 5 6 5 4 7 8 9 6 5 3 3 3 3 2 2 3 3 4 4 4 3 1 1 2 3 3 2 2 3 3 4 4 2 3 4 4 6 10 11 12 13
5 5 5 6 5 4 6 8 9 5 4 2 1 1 3 2 2 4 4 3 4 5 5 5 5 5 6 6 3 1 3 3 4 4 2 1 3 4 5 5 9 12 13
6 6 5 4 5 4 5 8 8 4 4 2 2 2 1 1 1 3 3 2 2 4 4 6 7 8 8 8 6 1 1 1 2 4 3 2 3 3 4 4 5 10 12
Wind_Direction
68 50 39 30 20 24 28 21 21 36 42 49 78 90 91 103 114 107 101 96 87 70 61 58 61 63 65 68 65 65 55 42 39 40 45 51 58 73 81 88 100 103 104
71 57 43 31 24 28 37 40 36 45 41 53 57 69 85 95 95 94 84 74 68 63 58 54 59 58 61 66 66 61 53 43 34 30 36 50 70 79 87 92 104 105 105
67 65 51 32 26 36 43 44 41 46 50 55 56 60 75 84 88 86 82 69 61 58 53 49 49 54 57 59 59 57 50 43 36 29 30 48 76 89 93 96 101 107 107
65 66 53 33 35 44 41 42 39 47 45 52 57 53 56 67 74 82 78 69 61 54 49 48 48 48 52 54 54 54 48 39 33 28 35 61 81 95 94 96 98 104 110
62 65 56 39 46 46 34 43 43 52 54 55 68 56 46 50 50 68 64 57 56 58 52 48 47 45 47 48 48 47 44 36 34 38 50 70 85 96 93 92 96 101 107
59 61 56 44 49 48 36 41 50 46 57 60 73 58 39 35 40 46 49 47 49 54 52 50 48 46 48 47 42 42 40 38 44 50 61 75 81 87 88 89 91 98 104
60 61 56 46 48 54 44 44 54 52 41 45 68 45 23 28 41 36 33 39 40 43 50 52 53 51 45 42 38 38 37 39 48 58 66 70 72 79 81 83 89 94 102
63 67 64 55 49 56 48 45 53 60 39 40 86 78 36 14 14 23 27 40 40 42 42 49 55 55 49 42 37 38 37 39 44 51 56 61 65 68 71 77 76 84 104
63 69 70 70 58 62 59 53 61 75 64 35 55 112 112 112 354 1 17 27 33 37 32 48 51 50 47 42 38 37 38 40 42 45 49 53 58 60 61 67 68 83 101
61 69 72 72 65 59 58 53 62 70 82 58 34 48 97 137 118 34 358 7 25 37 37 46 48 48 46 44 39 39 40 39 38 41 44 46 48 51 54 60 61 81 106
48 64 73 74 68 61 59 57 59 61 69 78 66 62 63 56 69 108 55 355 8 13 26 32 40 39 39 37 34 35 37 38 38 40 42 44 45 45 45 47 53 71 99
29 51 70 70 68 65 61 60 62 66 67 71 68 67 82 84 76 92 102 35 10 353 11 20 27 27 30 30 27 30 31 33 36 39 42 42 41 39 40 40 40 46 71
57 44 64 68 66 70 72 69 64 61 63 71 71 68 68 73 99 109 105 83 40 356 2 8 10 18 21 24 21 25 27 30 32 34 36 36 38 37 35 33 30 30 31
142 107 85 80 77 77 77 73 67 63 63 66 69 70 67 55 64 91 117 114 62 19 15 353 341 8 10 15 18 22 20 23 24 24 25 27 28 28 29 27 23 19 18
131 112 96 83 75 75 76 76 72 68 69 65 66 65 63 50 52 59 79 112 124 82 1 332 344 344 356 12 14 16 14 15 18 18 19 21 18 17 19 19 16 13 8
122 118 102 90 78 74 75 74 72 67 70 61 67 67 58 48 51 49 59 65 92 125 97 311 318 322 352 10 11 13 13 15 14 13 13 13 12 10 7 3 2 3 2
126 124 118 106 94 82 79 81 78 76 76 64 61 68 59 54 56 45 50 59 61 85 97 328 331 340 2 359 360 7 11 12 6 8 11 10 7 2 0 1 358 353 350
127 127 123 111 104 94 84 87 91 88 87 81 70 68 57 62 55 46 50 52 50 58 93 33 345 351 358 352 354 360 7 7 6 6 7 6 6 9 8 3 0 359 354
125 120 118 117 114 107 96 93 99 94 92 93 92 88 77 76 61 47 51 50 43 45 55 68 357 343 343 354 358 356 359 357 3 6 5 5 9 10 9 7 4 2 358
127 125 121 124 123 114 104 102 101 97 91 85 87 93 90 93 89 69 58 49 53 51 46 49 17 352 344 339 6 358 349 343 342 355 359 359 2 5 4 3 1 357 355
130 130 121 113 109 110 115 116 113 109 99 85 72 71 79 89 83 79 77 70 68 62 53 47 24 6 349 351 346 332 337 327 325 342 340 344 350 355 353 353 353 352 350
123 120 122 121 115 111 121 122 121 113 108 101 88 64 63 62 63 62 64 68 72 78 78 63 25 354 313 308 314 330 338 353 329 326 346 323 342 334 334 337 341 347 352
128 124 127 123 118 118 123 121 119 117 112 111 110 95 75 62 62 55 46 45 39 40 58 134 138 270 276 282 302 325 325 313 284 292 336 310 322 319 318 326 334 340 344
136 134 135 132 122 123 122 121 119 106 101 105 118 124 115 82 52 78 65 35 17 6 5 61 177 250 261 267 246 254 267 291 290 296 318 299 310 307 312 313 323 333 336
140 141 142 139 132 131 127 126 118 105 96 85 75 98 117 122 62 85 81 43 7 347 356 3 352 338 333 333 338 11 352 359 324 306 318 296 300 309 304 301 316 327 329
149 145 142 148 147 150 140 132 126 116 108 94 45 27 71 96 83 89 97 83 354 317 332 342 346 346 343 338 336 294 217 277 296 300 299 303 300 327 316 297 307 317 321
Height
1547 1546 1545 1544 1543 1542 1542 1541 1541 1541 1541 1541 1542 1542 1543 1543 1543 1543 1543 1543 1542 1542 1541 1540 1539 1539 1538 1538 1537 1536 1535 1535 1534 1533 1532 1531 1531 1531 1531 1531 1531 1532 1532
1548 1547 1546 1545 1544 1543 1543 1542 1542 1542 1543 1543 1543 1544 1544 1544 1544 1544 1544 1544 1543 1542 1542 1541 1540 1539 1539 1538 1538 1537 1536 1535 1534 1532 1531 1530 1529 1530 1531 1531 1532 1532 1533
1549 1548 1547 1546 1545 1544 1544 1544 1543 1544 1544 1545 1545 1545 1545 1546 1546 1546 1546 1545 1544 1544 1543 1542 1541 1541 1540 1539 1538 1538 1537 1535 1533 1531 1529 1526 1526 1528 1530 1532 1533 1534 1535
1551 1550 1549 1547 1547 1546 1545 1545 1545 1545 1545 1546 1546 1547 1547 1547 1547 1547 1547 1547 1546 1545 1544 1544 1543 1542 1541 1540 1539 1538 1537 1535 1533 1530 1527 1525 1525 1527 1530 1532 1534 1535 1536
1553 1551 1550 1549 1548 1547 1547 1546 1546 1546 1547 1547 1548 1548 1549 1549 1549 1549 1549 1548 1548 1547 1546 1545 1545 1544 1543 1542 1540 1539 1537 1535 1532 1529 1527 1526 1527 1529 1532 1534 1536 1537 1538
1554 1553 1552 1551 1550 1549 1549 1548 1548 1548 1548 1549 1549 1550 1550 1551 1551 1551 1551 1550 1550 1549 1548 1547 1546 1545 1544 1543 1542 1540 1539 1535 1532 1530 1529 1530 1531 1533 1534 1536 1537 1538 1539
1556 1555 1554 1553 1552 1551 1550 1550 1550 1550 1550 1550 1551 1552 1552 1553 1553 1553 1552 1552 1551 1550 1550 1549 1548 1547 1546 1545 1544 1542 1540 1538 1535 1533 1533 1534 1536 1536 1537 1538 1538 1538 1539
1558 1557 1556 1555 1554 1553 1552 1552 1552 1551 1551 1552 1552 1553 1554 1556 1555 1555 1554 1554 1553 1552 1552 1551 1550 1549 1548 1547 1546 1544 1543 1541 1540 1538 1538 1538 1539 1539 1539 1539 1538 1537 1538
1560 1559 1558 1557 1556 1555 1554 1554 1553 1553 1553 1553 1554 1554 1555 1555 1556 1557 1556 1556 1555 1554 1554 1553 1552 1551 1550 1549 1548 1547 1545 1544 1543 1542 1542 1542 1542 1541 1541 1540 1539 1537 1537
1561 1560 1559 1559 1558 1557 1556 1556 1555 1555 1555 1555 1555 1555 1556 1556 1556 1558 1558 1557 1557 1556 1556 1555 1554 1553 1552 1551 1550 1549 1548 1547 1546 1545 1544 1544 1544 1544 1543 1542 1540 1539 1539
1563 1562 1561 1561 1560 1559 1559 1558 1558 1557 1557 1557 1557 1557 1557 1557 1557 1558 1558 1559 1559 1558 1558 1557 1556 1555 1554 1553 1552 1551 1550 1549 1548 1547 1547 1546 1546 1546 1545 1545 1544 1542 1542
1564 1564 1563 1563 1562 1561 1561 1560 1560 1559 1559 1559 1559 1558 1558 1558 1559 1559 1559 1560 1560 1560 1559 1559 1558 1557 1556 1555 1554 1553 1552 1551 1550 1549 1548 1548 1548 1547 1547 1546 1546 1546 1546
1565 1565 1565 1564 1564 1563 1563 1562 1562 1561 1561 1561 1560 1560 1560 1560 1561 1561 1560 1560 1560 1561 1560 1560 1559 1558 1557 1556 1555 1554 1553 1552 1551 1550 1550 1549 1549 1548 1548 1548 1547 1547 1547
1567 1566 1566 1566 1565 1565 1564 1564 1564 1563 1563 1563 1562 1562 1562 1562 1562 1562 1562 1561 1561 1562 1561 1561 1560 1559 1558 1557 1556 1555 1554 1553 1552 1551 1550 1550 1549 1549 1549 1548 1548 1548 1548
1568 1568 1568 1567 1567 1567 1566 1566 1565 1565 1565 1564 1564 1564 1563 1563 1563 1563 1563 1563 1563 1562 1562 1561 1561 1560 1559 1558 1557 1556 1554 1553 1552 1552 1551 1550 1550 1549 1549 1548 1548 1548 1547
1569 1569 1569 1569 1568 1568 1568 1567 1567 1567 1566 1566 1566 1566 1565 1565 1564 1564 1564 1563 1563 1563 1562 1562 1561 1560 1559 1558 1557 1556 1555 1554 1553 1552 1551 1550 1549 1549 1548 1548 1547 1546 1546
1570 1570 1570 1570 1569 1569 1569 1569 1569 1568 1568 1568 1567 1567 1567 1566 1566 1565 1564 1564 1564 1563 1562 1562 1561 1560 1559 1558 1557 1556 1555 1553 1552 1551 1550 1550 1549 1548 1547 1546 1545 1544 1544
1570 1571 1571 1571 1571 1571 1571 1570 1570 1570 1569 1569 1569 1568 1568 1567 1567 1566 1565 1564 1564 1563 1563 1562 1561 1560 1559 1558 1557 1555 1554 1553 1552 1551 1550 1549 1548 1547 1546 1545 1544 1542 1542
1570 1571 1571 1571 1571 1571 1571 1571 1571 1571 1571 1570 1570 1569 1569 1568 1567 1567 1566 1565 1564 1564 1563 1562 1561 1560 1559 1558 1556 1555 1554 1552 1551 1550 1549 1548 1547 1546 1545 1544 1542 1541 1540
1570 1571 1571 1572 1572 1572 1572 1572 1572 1572 1571 1571 1571 1570 1570 1569 1568 1567 1567 1566 1565 1564 1563 1562 1561 1560 1559 1557 1556 1554 1552 1551 1550 1549 1548 1547 1546 1544 1543 1542 1540 1539 1538
1570 1570 1571 1571 1572 1572 1572 1572 1572 1572 1572 1571 1571 1571 1570 1569 1569 1568 1567 1566 1565 1564 1563 1562 1560 1559 1558 1556 1555 1553 1551 1550 1549 1547 1546 1545 1544 1542 1541 1539 1538 1536 1535
1569 1570 1570 1571 1571 1572 1572 1572 1572 1572 1572 1572 1571 1571 1570 1570 1569 1568 1567 1566 1565 1564 1562 1561 1560 1558 1557 1555 1554 1552 1550 1548 1547 1546 1544 1542 1541 1540 1538 1536 1535 1533 1532
1567 1568 1569 1570 1570 1571 1571 1572 1572 1572 1572 1571 1571 1570 1570 1569 1569 1568 1567 1566 1564 1563 1562 1561 1559 1558 1556 1555 1553 1551 1549 1548 1546 1544 1542 1539 1538 1536 1535 1533 1531 1529 1528
1566 1567 1568 1569 1569 1570 1570 1571 1571 1571 1571 1571 1570 1570 1569 1569 1568 1567 1566 1565 1564 1563 1561 1560 1559 1557 1555 1554 1552 1550 1548 1546 1544 1543 1540 1537 1535 1533 1531 1530 1528 1526 1524
1564 1565 1566 1567 1568 1568 1569 1569 1570 1570 1570 1569 1569 1569 1568 1568 1567 1566 1565 1564 1563 1562 1560 1559 1557 1556 1554 1553 1551 1549 1546 1544 1541 1540 1538 1535 1532 1529 1527 1526 1524 1523 1520
1562 1563 1564 1565 1566 1567 1567 1568 1568 1568 1568 1568 1568 1568 1567 1567 1566 1565 1564 1562 1561 1560 1559 1557 1556 1554 1553 1551 1549 1547 1544 1542 1539 1536 1535 1533 1529 1526 1522 1521 1520 1518 1516